sat.trackr.live / text

‹ back to catalog

STARLINK-31286

NORAD 59082 · 2024-041J

PAYLOAD ACTIVE UNKNOWN

§ Identity

Operator
Country
US
Launch date
2024-02-29
Launch site
AFETR
Launch vehicle
Mass (kg)
RCS (m²)

Purposes: comms

External: N2YO · Heavens-Above · Gunter

§ Orbital elements

Epoch: 2026-05-24T15:59:48.636960Z

Period
94.27 min
Inclination
43.0030°
Eccentricity
0.0002053
Mean motion
15.27576086 rev/d
Perigee alt
481.7 km
Apogee alt
484.5 km
Semi-major
6,861.2 km
B*
3.9757e-5
RAAN
241.4212°
Arg perigee
251.4495°
Mean anomaly
108.6134°
Rev number
12,597

§ Raw data

STARLINK-312861 59082U 24041J   26144.66653515  .00000832  00000+0  39757-4 0  99962 59082  43.0030 241.4212 0002053 251.4495 108.6134 15.27576086125976

JSON: /api/v1/satellites/59082 · /tle

For live sub-satellite position, see the globe view (requires WebGL).

§ Visibility from observer

Set your observer location to see the next 7 days of passes ≥ 10°. The values pass through the URL so the page stays shareable.

No JS? Fill the form by hand. The geolocation button needs JavaScript.